owner,sensor,date,latitude,longitude,vertical_datum,sea_water_temperature,qcFlag 
FIT,ioos:station:wmo:SIPF1:1,2019-06-01T00:00:00Z,27.8620,-80.4450,8.0,25.7,11111222 
FIT,ioos:station:wmo:SIPF1:1,2019-06-01T00:15:00Z,27.8620,-80.4450,8.0,25.7,11111222 
FIT,ioos:station:wmo:SIPF1:1,2019-06-01T00:30:00Z,27.8620,-80.4450,8.0,25.6,11111222 
FIT,ioos:station:wmo:SIPF1:1,2019-06-01T00:45:00Z,27.8620,-80.4450,8.0,25.53,11111222 
FIT,ioos:station:wmo:SIPF1:1,2019-06-01T01:00:00Z,27.8620,-80.4450,8.0,25.6,11111222 
FIT,ioos:station:wmo:SIPF1:1,2019-06-01T01:15:00Z,27.8620,-80.4450,8.0,26.2,11111222 
FIT,ioos:station:wmo:SIPF1:1,2019-06-01T01:30:00Z,27.8620,-80.4450,8.0,26.6,11111222 
FIT,ioos:station:wmo:SIPF1:1,2019-06-01T01:45:00Z,27.8620,-80.4450,8.0,26.78,11111222 
FIT,ioos:station:wmo:SIPF1:1,2019-06-01T02:00:00Z,27.8620,-80.4450,8.0,26.6,11111222 
FIT,ioos:station:wmo:SIPF1:1,2019-06-01T02:15:00Z,27.8620,-80.4450,8.0,25.9,11111222 
FIT,ioos:station:wmo:SIPF1:1,2019-06-01T02:30:00Z,27.8620,-80.4450,8.0,26.3,11111222 
FIT,ioos:station:wmo:SIPF1:1,2019-06-01T02:45:00Z,27.8620,-80.4450,8.0,27.04,11111222 
FIT,ioos:station:wmo:SIPF1:1,2019-06-01T03:00:00Z,27.8620,-80.4450,8.0,27.3,11111222 
FIT,ioos:station:wmo:SIPF1:1,2019-06-01T03:15:00Z,27.8620,-80.4450,8.0,27.2,11111222 
FIT,ioos:station:wmo:SIPF1:1,2019-06-01T03:30:00Z,27.8620,-80.4450,8.0,27.0,11111222 
FIT,ioos:station:wmo:SIPF1:1,2019-06-01T03:45:00Z,27.8620,-80.4450,8.0,26.99,11111222 
FIT,ioos:station:wmo:SIPF1:1,2019-06-01T04:00:00Z,27.8620,-80.4450,8.0,26.9,11111222 
FIT,ioos:station:wmo:SIPF1:1,2019-06-01T04:15:00Z,27.8620,-80.4450,8.0,26.8,11111222 
FIT,ioos:station:wmo:SIPF1:1,2019-06-01T04:30:00Z,27.8620,-80.4450,8.0,26.6,11111222 
FIT,ioos:station:wmo:SIPF1:1,2019-06-01T04:45:00Z,27.8620,-80.4450,8.0,26.47,11111222 
FIT,ioos:station:wmo:SIPF1:1,2019-06-01T05:00:00Z,27.8620,-80.4450,8.0,26.3,11111222 
FIT,ioos:station:wmo:SIPF1:1,2019-06-01T05:15:00Z,27.8620,-80.4450,8.0,26.0,11111222 
FIT,ioos:station:wmo:SIPF1:1,2019-06-01T05:30:00Z,27.8620,-80.4450,8.0,25.7,11111222 
FIT,ioos:station:wmo:SIPF1:1,2019-06-01T05:45:00Z,27.8620,-80.4450,8.0,25.69,11111222 
FIT,ioos:station:wmo:SIPF1:1,2019-06-01T06:00:00Z,27.8620,-80.4450,8.0,25.6,11111222 
FIT,ioos:station:wmo:SIPF1:1,2019-06-01T06:15:00Z,27.8620,-80.4450,8.0,25.6,11111222 
FIT,ioos:station:wmo:SIPF1:1,2019-06-01T06:30:00Z,27.8620,-80.4450,8.0,25.6,11111222 
FIT,ioos:station:wmo:SIPF1:1,2019-06-01T06:45:00Z,27.8620,-80.4450,8.0,25.35,11111222 
FIT,ioos:station:wmo:SIPF1:1,2019-06-01T07:00:00Z,27.8620,-80.4450,8.0,25.3,11111222 
FIT,ioos:station:wmo:SIPF1:1,2019-06-01T07:15:00Z,27.8620,-80.4450,8.0,25.3,11111222 
FIT,ioos:station:wmo:SIPF1:1,2019-06-01T07:30:00Z,27.8620,-80.4450,8.0,25.2,11111222 
FIT,ioos:station:wmo:SIPF1:1,2019-06-01T07:45:00Z,27.8620,-80.4450,8.0,25.27,11111222 
FIT,ioos:station:wmo:SIPF1:1,2019-06-01T08:00:00Z,27.8620,-80.4450,8.0,25.0,11111222 
FIT,ioos:station:wmo:SIPF1:1,2019-06-01T08:15:00Z,27.8620,-80.4450,8.0,25.1,11111222 
FIT,ioos:station:wmo:SIPF1:1,2019-06-01T08:30:00Z,27.8620,-80.4450,8.0,25.2,11111222 
FIT,ioos:station:wmo:SIPF1:1,2019-06-01T08:45:00Z,27.8620,-80.4450,8.0,25.17,11111222 
FIT,ioos:station:wmo:SIPF1:1,2019-06-01T09:00:00Z,27.8620,-80.4450,8.0,24.9,11111222 
FIT,ioos:station:wmo:SIPF1:1,2019-06-01T09:15:00Z,27.8620,-80.4450,8.0,24.7,11111222 
FIT,ioos:station:wmo:SIPF1:1,2019-06-01T09:30:00Z,27.8620,-80.4450,8.0,24.9,11111222 
FIT,ioos:station:wmo:SIPF1:1,2019-06-01T09:45:00Z,27.8620,-80.4450,8.0,24.76,11111222 
FIT,ioos:station:wmo:SIPF1:1,2019-06-01T10:00:00Z,27.8620,-80.4450,8.0,24.5,11111222 
FIT,ioos:station:wmo:SIPF1:1,2019-06-01T10:15:00Z,27.8620,-80.4450,8.0,24.5,11111222 
FIT,ioos:station:wmo:SIPF1:1,2019-06-01T10:30:00Z,27.8620,-80.4450,8.0,24.5,11111222 
FIT,ioos:station:wmo:SIPF1:1,2019-06-01T10:45:00Z,27.8620,-80.4450,8.0,24.6,11111222 
FIT,ioos:station:wmo:SIPF1:1,2019-06-01T11:00:00Z,27.8620,-80.4450,8.0,24.7,11111222 
FIT,ioos:station:wmo:SIPF1:1,2019-06-01T11:15:00Z,27.8620,-80.4450,8.0,24.7,11111222 
FIT,ioos:station:wmo:SIPF1:1,2019-06-01T11:30:00Z,27.8620,-80.4450,8.0,24.8,11111222 
FIT,ioos:station:wmo:SIPF1:1,2019-06-01T11:45:00Z,27.8620,-80.4450,8.0,25.37,11111222 
FIT,ioos:station:wmo:SIPF1:1,2019-06-01T12:00:00Z,27.8620,-80.4450,8.0,25.5,11111222 
FIT,ioos:station:wmo:SIPF1:1,2019-06-01T12:15:00Z,27.8620,-80.4450,8.0,25.7,11111222 
FIT,ioos:station:wmo:SIPF1:1,2019-06-01T12:30:00Z,27.8620,-80.4450,8.0,26.4,11111222 
FIT,ioos:station:wmo:SIPF1:1,2019-06-01T12:45:00Z,27.8620,-80.4450,8.0,26.95,11111222 
FIT,ioos:station:wmo:SIPF1:1,2019-06-01T13:00:00Z,27.8620,-80.4450,8.0,27.7,11111222 
FIT,ioos:station:wmo:SIPF1:1,2019-06-01T13:15:00Z,27.8620,-80.4450,8.0,28.4,11111222 
FIT,ioos:station:wmo:SIPF1:1,2019-06-01T13:30:00Z,27.8620,-80.4450,8.0,29.0,11111222 
FIT,ioos:station:wmo:SIPF1:1,2019-06-01T13:45:00Z,27.8620,-80.4450,8.0,29.28,11111222 
FIT,ioos:station:wmo:SIPF1:1,2019-06-01T14:00:00Z,27.8620,-80.4450,8.0,28.8,11111222 
FIT,ioos:station:wmo:SIPF1:1,2019-06-01T14:15:00Z,27.8620,-80.4450,8.0,29.1,11111222 
FIT,ioos:station:wmo:SIPF1:1,2019-06-01T14:30:00Z,27.8620,-80.4450,8.0,30.1,11111222 
FIT,ioos:station:wmo:SIPF1:1,2019-06-01T14:45:00Z,27.8620,-80.4450,8.0,30.11,11111222 
FIT,ioos:station:wmo:SIPF1:1,2019-06-01T15:00:00Z,27.8620,-80.4450,8.0,27.4,11111222 
FIT,ioos:station:wmo:SIPF1:1,2019-06-01T15:15:00Z,27.8620,-80.4450,8.0,26.6,11111222 
FIT,ioos:station:wmo:SIPF1:1,2019-06-01T15:30:00Z,27.8620,-80.4450,8.0,26.8,11111222 
FIT,ioos:station:wmo:SIPF1:1,2019-06-01T15:45:00Z,27.8620,-80.4450,8.0,26.25,11111222 
FIT,ioos:station:wmo:SIPF1:1,2019-06-01T16:00:00Z,27.8620,-80.4450,8.0,25.6,11111222 
FIT,ioos:station:wmo:SIPF1:1,2019-06-01T16:15:00Z,27.8620,-80.4450,8.0,26.2,11111222 
FIT,ioos:station:wmo:SIPF1:1,2019-06-01T16:30:00Z,27.8620,-80.4450,8.0,26.7,11111222 
FIT,ioos:station:wmo:SIPF1:1,2019-06-01T16:45:00Z,27.8620,-80.4450,8.0,26.68,11111222 
FIT,ioos:station:wmo:SIPF1:1,2019-06-01T17:00:00Z,27.8620,-80.4450,8.0,27.0,11111222 
FIT,ioos:station:wmo:SIPF1:1,2019-06-01T17:15:00Z,27.8620,-80.4450,8.0,26.8,11111222 
FIT,ioos:station:wmo:SIPF1:1,2019-06-01T17:30:00Z,27.8620,-80.4450,8.0,26.3,11111222 
FIT,ioos:station:wmo:SIPF1:1,2019-06-01T17:45:00Z,27.8620,-80.4450,8.0,26.52,11111222 
FIT,ioos:station:wmo:SIPF1:1,2019-06-01T18:00:00Z,27.8620,-80.4450,8.0,26.3,11111222 
FIT,ioos:station:wmo:SIPF1:1,2019-06-01T18:15:00Z,27.8620,-80.4450,8.0,26.3,11111222 
FIT,ioos:station:wmo:SIPF1:1,2019-06-01T18:30:00Z,27.8620,-80.4450,8.0,26.0,11111222 
FIT,ioos:station:wmo:SIPF1:1,2019-06-01T18:45:00Z,27.8620,-80.4450,8.0,25.94,11111222 
FIT,ioos:station:wmo:SIPF1:1,2019-06-01T19:00:00Z,27.8620,-80.4450,8.0,26.1,11111222 
FIT,ioos:station:wmo:SIPF1:1,2019-06-01T19:15:00Z,27.8620,-80.4450,8.0,25.9,11111222 
FIT,ioos:station:wmo:SIPF1:1,2019-06-01T19:30:00Z,27.8620,-80.4450,8.0,26.1,11111222 
FIT,ioos:station:wmo:SIPF1:1,2019-06-01T19:45:00Z,27.8620,-80.4450,8.0,26.51,11111222 
FIT,ioos:station:wmo:SIPF1:1,2019-06-01T20:00:00Z,27.8620,-80.4450,8.0,27.8,11111222 
FIT,ioos:station:wmo:SIPF1:1,2019-06-01T20:15:00Z,27.8620,-80.4450,8.0,27.4,11111222 
FIT,ioos:station:wmo:SIPF1:1,2019-06-01T20:30:00Z,27.8620,-80.4450,8.0,27.8,11111222 
FIT,ioos:station:wmo:SIPF1:1,2019-06-01T20:45:00Z,27.8620,-80.4450,8.0,28.15,11111222 
FIT,ioos:station:wmo:SIPF1:1,2019-06-01T21:00:00Z,27.8620,-80.4450,8.0,28.6,11111222 
FIT,ioos:station:wmo:SIPF1:1,2019-06-01T21:15:00Z,27.8620,-80.4450,8.0,29.0,11111222 
FIT,ioos:station:wmo:SIPF1:1,2019-06-01T21:30:00Z,27.8620,-80.4450,8.0,28.9,11111222 
FIT,ioos:station:wmo:SIPF1:1,2019-06-01T21:45:00Z,27.8620,-80.4450,8.0,28.58,11111222 
FIT,ioos:station:wmo:SIPF1:1,2019-06-01T22:00:00Z,27.8620,-80.4450,8.0,27.3,11111222 
FIT,ioos:station:wmo:SIPF1:1,2019-06-01T22:15:00Z,27.8620,-80.4450,8.0,25.2,11111222 
FIT,ioos:station:wmo:SIPF1:1,2019-06-01T22:30:00Z,27.8620,-80.4450,8.0,25.7,11111222 
FIT,ioos:station:wmo:SIPF1:1,2019-06-01T22:45:00Z,27.8620,-80.4450,8.0,26.06,11111222 
FIT,ioos:station:wmo:SIPF1:1,2019-06-01T23:00:00Z,27.8620,-80.4450,8.0,26.0,11111222 
FIT,ioos:station:wmo:SIPF1:1,2019-06-01T23:15:00Z,27.8620,-80.4450,8.0,25.7,11111222 
FIT,ioos:station:wmo:SIPF1:1,2019-06-01T23:30:00Z,27.8620,-80.4450,8.0,25.0,11111222 
FIT,ioos:station:wmo:SIPF1:1,2019-06-01T23:45:00Z,27.8620,-80.4450,8.0,24.42,11111222 
FIT,ioos:station:wmo:SIPF1:1,2019-06-02T00:00:00Z,27.8620,-80.4450,8.0,24.1,11111222 
FIT,ioos:station:wmo:SIPF1:1,2019-06-02T00:15:00Z,27.8620,-80.4450,8.0,23.2,11111222 
FIT,ioos:station:wmo:SIPF1:1,2019-06-02T00:30:00Z,27.8620,-80.4450,8.0,22.8,11111222 
FIT,ioos:station:wmo:SIPF1:1,2019-06-02T00:45:00Z,27.8620,-80.4450,8.0,23.15,11111222 
FIT,ioos:station:wmo:SIPF1:1,2019-06-02T01:00:00Z,27.8620,-80.4450,8.0,22.7,11111222 
FIT,ioos:station:wmo:SIPF1:1,2019-06-02T01:15:00Z,27.8620,-80.4450,8.0,22.7,11111222 
FIT,ioos:station:wmo:SIPF1:1,2019-06-02T01:30:00Z,27.8620,-80.4450,8.0,22.7,11111222 
FIT,ioos:station:wmo:SIPF1:1,2019-06-02T01:45:00Z,27.8620,-80.4450,8.0,22.48,11111222 
FIT,ioos:station:wmo:SIPF1:1,2019-06-02T02:00:00Z,27.8620,-80.4450,8.0,22.7,11111222 
FIT,ioos:station:wmo:SIPF1:1,2019-06-02T02:15:00Z,27.8620,-80.4450,8.0,22.7,11111222 
FIT,ioos:station:wmo:SIPF1:1,2019-06-02T02:30:00Z,27.8620,-80.4450,8.0,22.9,11111222 
FIT,ioos:station:wmo:SIPF1:1,2019-06-02T02:45:00Z,27.8620,-80.4450,8.0,23.14,11111222 
FIT,ioos:station:wmo:SIPF1:1,2019-06-02T03:00:00Z,27.8620,-80.4450,8.0,23.3,11111222 
FIT,ioos:station:wmo:SIPF1:1,2019-06-02T03:15:00Z,27.8620,-80.4450,8.0,23.4,11111222 
FIT,ioos:station:wmo:SIPF1:1,2019-06-02T03:30:00Z,27.8620,-80.4450,8.0,23.7,11111222 
FIT,ioos:station:wmo:SIPF1:1,2019-06-02T03:45:00Z,27.8620,-80.4450,8.0,23.98,11111222 
FIT,ioos:station:wmo:SIPF1:1,2019-06-02T04:00:00Z,27.8620,-80.4450,8.0,24.2,11111222 
FIT,ioos:station:wmo:SIPF1:1,2019-06-02T04:15:00Z,27.8620,-80.4450,8.0,24.0,11111222 
FIT,ioos:station:wmo:SIPF1:1,2019-06-02T04:30:00Z,27.8620,-80.4450,8.0,23.5,11111222 
FIT,ioos:station:wmo:SIPF1:1,2019-06-02T04:45:00Z,27.8620,-80.4450,8.0,23.17,11111222 
FIT,ioos:station:wmo:SIPF1:1,2019-06-02T05:00:00Z,27.8620,-80.4450,8.0,23.3,11111222 
FIT,ioos:station:wmo:SIPF1:1,2019-06-02T05:15:00Z,27.8620,-80.4450,8.0,23.3,11111222 
FIT,ioos:station:wmo:SIPF1:1,2019-06-02T05:30:00Z,27.8620,-80.4450,8.0,23.3,11111222 
FIT,ioos:station:wmo:SIPF1:1,2019-06-02T05:45:00Z,27.8620,-80.4450,8.0,23.4,11111222 
FIT,ioos:station:wmo:SIPF1:1,2019-06-02T06:00:00Z,27.8620,-80.4450,8.0,23.4,11111222 
FIT,ioos:station:wmo:SIPF1:1,2019-06-02T06:15:00Z,27.8620,-80.4450,8.0,23.3,11111222 
FIT,ioos:station:wmo:SIPF1:1,2019-06-02T06:30:00Z,27.8620,-80.4450,8.0,23.4,11111222 
FIT,ioos:station:wmo:SIPF1:1,2019-06-02T06:45:00Z,27.8620,-80.4450,8.0,23.34,11111222 
FIT,ioos:station:wmo:SIPF1:1,2019-06-02T07:00:00Z,27.8620,-80.4450,8.0,23.3,11111222 
FIT,ioos:station:wmo:SIPF1:1,2019-06-02T07:15:00Z,27.8620,-80.4450,8.0,23.2,11111222 
FIT,ioos:station:wmo:SIPF1:1,2019-06-02T07:30:00Z,27.8620,-80.4450,8.0,23.1,11111222 
FIT,ioos:station:wmo:SIPF1:1,2019-06-02T07:45:00Z,27.8620,-80.4450,8.0,23.08,11111222 
FIT,ioos:station:wmo:SIPF1:1,2019-06-02T08:00:00Z,27.8620,-80.4450,8.0,23.0,11111222 
FIT,ioos:station:wmo:SIPF1:1,2019-06-02T08:15:00Z,27.8620,-80.4450,8.0,22.9,11111222 
FIT,ioos:station:wmo:SIPF1:1,2019-06-02T08:30:00Z,27.8620,-80.4450,8.0,22.9,11111222 
FIT,ioos:station:wmo:SIPF1:1,2019-06-02T08:45:00Z,27.8620,-80.4450,8.0,22.92,11111222 
FIT,ioos:station:wmo:SIPF1:1,2019-06-02T09:00:00Z,27.8620,-80.4450,8.0,22.9,11111222 
FIT,ioos:station:wmo:SIPF1:1,2019-06-02T09:15:00Z,27.8620,-80.4450,8.0,22.8,11111222 
FIT,ioos:station:wmo:SIPF1:1,2019-06-02T09:30:00Z,27.8620,-80.4450,8.0,22.8,11111222 
FIT,ioos:station:wmo:SIPF1:1,2019-06-02T09:45:00Z,27.8620,-80.4450,8.0,22.64,11111222 
FIT,ioos:station:wmo:SIPF1:1,2019-06-02T10:00:00Z,27.8620,-80.4450,8.0,22.6,11111222 
FIT,ioos:station:wmo:SIPF1:1,2019-06-02T10:15:00Z,27.8620,-80.4450,8.0,22.6,11111222 
FIT,ioos:station:wmo:SIPF1:1,2019-06-02T10:30:00Z,27.8620,-80.4450,8.0,22.5,11111222 
FIT,ioos:station:wmo:SIPF1:1,2019-06-02T10:45:00Z,27.8620,-80.4450,8.0,22.55,11111222 
FIT,ioos:station:wmo:SIPF1:1,2019-06-02T11:00:00Z,27.8620,-80.4450,8.0,22.8,11111222 
FIT,ioos:station:wmo:SIPF1:1,2019-06-02T11:15:00Z,27.8620,-80.4450,8.0,23.4,11111222 
FIT,ioos:station:wmo:SIPF1:1,2019-06-02T11:30:00Z,27.8620,-80.4450,8.0,24.2,11111222 
FIT,ioos:station:wmo:SIPF1:1,2019-06-02T11:45:00Z,27.8620,-80.4450,8.0,24.74,11111222 
FIT,ioos:station:wmo:SIPF1:1,2019-06-02T12:00:00Z,27.8620,-80.4450,8.0,25.4,11111222 
FIT,ioos:station:wmo:SIPF1:1,2019-06-02T12:15:00Z,27.8620,-80.4450,8.0,25.8,11111222 
FIT,ioos:station:wmo:SIPF1:1,2019-06-02T12:30:00Z,27.8620,-80.4450,8.0,26.1,11111222 
FIT,ioos:station:wmo:SIPF1:1,2019-06-02T12:45:00Z,27.8620,-80.4450,8.0,26.54,11111222 
FIT,ioos:station:wmo:SIPF1:1,2019-06-02T13:00:00Z,27.8620,-80.4450,8.0,26.8,11111222 
FIT,ioos:station:wmo:SIPF1:1,2019-06-02T13:15:00Z,27.8620,-80.4450,8.0,27.0,11111222 
FIT,ioos:station:wmo:SIPF1:1,2019-06-02T13:30:00Z,27.8620,-80.4450,8.0,27.4,11111222 
FIT,ioos:station:wmo:SIPF1:1,2019-06-02T13:45:00Z,27.8620,-80.4450,8.0,27.95,11111222 
FIT,ioos:station:wmo:SIPF1:1,2019-06-02T14:00:00Z,27.8620,-80.4450,8.0,28.5,11111222 
FIT,ioos:station:wmo:SIPF1:1,2019-06-02T14:15:00Z,27.8620,-80.4450,8.0,29.3,11111222 
FIT,ioos:station:wmo:SIPF1:1,2019-06-02T14:30:00Z,27.8620,-80.4450,8.0,30.5,11111222 
FIT,ioos:station:wmo:SIPF1:1,2019-06-02T14:45:00Z,27.8620,-80.4450,8.0,31.16,11111222 
FIT,ioos:station:wmo:SIPF1:1,2019-06-02T15:00:00Z,27.8620,-80.4450,8.0,29.5,11111222 
FIT,ioos:station:wmo:SIPF1:1,2019-06-02T15:15:00Z,27.8620,-80.4450,8.0,28.3,11111222 
FIT,ioos:station:wmo:SIPF1:1,2019-06-02T15:30:00Z,27.8620,-80.4450,8.0,28.0,11111222 
FIT,ioos:station:wmo:SIPF1:1,2019-06-02T15:45:00Z,27.8620,-80.4450,8.0,28.0,11111222 
FIT,ioos:station:wmo:SIPF1:1,2019-06-02T16:00:00Z,27.8620,-80.4450,8.0,28.1,11111222 
FIT,ioos:station:wmo:SIPF1:1,2019-06-02T16:15:00Z,27.8620,-80.4450,8.0,27.9,11111222 
FIT,ioos:station:wmo:SIPF1:1,2019-06-02T16:30:00Z,27.8620,-80.4450,8.0,28.1,11111222 
FIT,ioos:station:wmo:SIPF1:1,2019-06-02T16:45:00Z,27.8620,-80.4450,8.0,28.26,11111222 
FIT,ioos:station:wmo:SIPF1:1,2019-06-02T17:00:00Z,27.8620,-80.4450,8.0,28.0,11111222 
FIT,ioos:station:wmo:SIPF1:1,2019-06-02T17:15:00Z,27.8620,-80.4450,8.0,28.3,11111222 
FIT,ioos:station:wmo:SIPF1:1,2019-06-02T17:30:00Z,27.8620,-80.4450,8.0,27.8,11111222 
FIT,ioos:station:wmo:SIPF1:1,2019-06-02T17:45:00Z,27.8620,-80.4450,8.0,27.22,11111222 
FIT,ioos:station:wmo:SIPF1:1,2019-06-02T18:00:00Z,27.8620,-80.4450,8.0,27.0,11111222 
FIT,ioos:station:wmo:SIPF1:1,2019-06-02T18:15:00Z,27.8620,-80.4450,8.0,27.1,11111222 
FIT,ioos:station:wmo:SIPF1:1,2019-06-02T18:30:00Z,27.8620,-80.4450,8.0,27.2,11111222 
FIT,ioos:station:wmo:SIPF1:1,2019-06-02T18:45:00Z,27.8620,-80.4450,8.0,27.27,11111222 
FIT,ioos:station:wmo:SIPF1:1,2019-06-02T19:00:00Z,27.8620,-80.4450,8.0,27.4,11111222 
FIT,ioos:station:wmo:SIPF1:1,2019-06-02T19:15:00Z,27.8620,-80.4450,8.0,27.4,11111222 
FIT,ioos:station:wmo:SIPF1:1,2019-06-02T19:30:00Z,27.8620,-80.4450,8.0,27.3,11111222 
FIT,ioos:station:wmo:SIPF1:1,2019-06-02T19:45:00Z,27.8620,-80.4450,8.0,27.23,11111222 
FIT,ioos:station:wmo:SIPF1:1,2019-06-02T20:00:00Z,27.8620,-80.4450,8.0,27.1,11111222 
FIT,ioos:station:wmo:SIPF1:1,2019-06-02T20:15:00Z,27.8620,-80.4450,8.0,27.0,11111222 
FIT,ioos:station:wmo:SIPF1:1,2019-06-02T20:30:00Z,27.8620,-80.4450,8.0,26.2,11111222 
FIT,ioos:station:wmo:SIPF1:1,2019-06-02T20:45:00Z,27.8620,-80.4450,8.0,25.48,11111222 
FIT,ioos:station:wmo:SIPF1:1,2019-06-02T21:00:00Z,27.8620,-80.4450,8.0,25.7,11111222 
FIT,ioos:station:wmo:SIPF1:1,2019-06-02T21:15:00Z,27.8620,-80.4450,8.0,25.3,11111222 
FIT,ioos:station:wmo:SIPF1:1,2019-06-02T21:30:00Z,27.8620,-80.4450,8.0,26.6,11111222 
FIT,ioos:station:wmo:SIPF1:1,2019-06-02T21:45:00Z,27.8620,-80.4450,8.0,26.22,11111222 
FIT,ioos:station:wmo:SIPF1:1,2019-06-02T22:00:00Z,27.8620,-80.4450,8.0,25.7,11111222 
FIT,ioos:station:wmo:SIPF1:1,2019-06-02T22:15:00Z,27.8620,-80.4450,8.0,25.6,11111222 
FIT,ioos:station:wmo:SIPF1:1,2019-06-02T22:30:00Z,27.8620,-80.4450,8.0,25.8,11111222 
FIT,ioos:station:wmo:SIPF1:1,2019-06-02T22:45:00Z,27.8620,-80.4450,8.0,26.1,11111222 
FIT,ioos:station:wmo:SIPF1:1,2019-06-02T23:00:00Z,27.8620,-80.4450,8.0,26.1,11111222 
FIT,ioos:station:wmo:SIPF1:1,2019-06-02T23:15:00Z,27.8620,-80.4450,8.0,26.3,11111222 
FIT,ioos:station:wmo:SIPF1:1,2019-06-02T23:30:00Z,27.8620,-80.4450,8.0,26.6,11111222 
FIT,ioos:station:wmo:SIPF1:1,2019-06-02T23:45:00Z,27.8620,-80.4450,8.0,26.43,11111222 
FIT,ioos:station:wmo:SIPF1:1,2019-06-03T00:00:00Z,27.8620,-80.4450,8.0,26.4,11111222 
FIT,ioos:station:wmo:SIPF1:1,2019-06-03T00:15:00Z,27.8620,-80.4450,8.0,26.4,11111222 
FIT,ioos:station:wmo:SIPF1:1,2019-06-03T00:30:00Z,27.8620,-80.4450,8.0,26.5,11111222 
FIT,ioos:station:wmo:SIPF1:1,2019-06-03T00:45:00Z,27.8620,-80.4450,8.0,26.58,11111222 
FIT,ioos:station:wmo:SIPF1:1,2019-06-03T01:00:00Z,27.8620,-80.4450,8.0,26.8,11111222 
FIT,ioos:station:wmo:SIPF1:1,2019-06-03T01:15:00Z,27.8620,-80.4450,8.0,26.9,11111222 
FIT,ioos:station:wmo:SIPF1:1,2019-06-03T01:30:00Z,27.8620,-80.4450,8.0,26.9,11111222 
FIT,ioos:station:wmo:SIPF1:1,2019-06-03T01:45:00Z,27.8620,-80.4450,8.0,26.93,11111222 
FIT,ioos:station:wmo:SIPF1:1,2019-06-03T02:00:00Z,27.8620,-80.4450,8.0,27.0,11111222 
FIT,ioos:station:wmo:SIPF1:1,2019-06-03T02:15:00Z,27.8620,-80.4450,8.0,27.2,11111222 
FIT,ioos:station:wmo:SIPF1:1,2019-06-03T02:30:00Z,27.8620,-80.4450,8.0,27.3,11111222 
FIT,ioos:station:wmo:SIPF1:1,2019-06-03T02:45:00Z,27.8620,-80.4450,8.0,27.59,11111222 
FIT,ioos:station:wmo:SIPF1:1,2019-06-03T03:00:00Z,27.8620,-80.4450,8.0,27.7,11111222 
FIT,ioos:station:wmo:SIPF1:1,2019-06-03T03:15:00Z,27.8620,-80.4450,8.0,27.6,11111222 
FIT,ioos:station:wmo:SIPF1:1,2019-06-03T03:30:00Z,27.8620,-80.4450,8.0,27.4,11111222 
FIT,ioos:station:wmo:SIPF1:1,2019-06-03T03:45:00Z,27.8620,-80.4450,8.0,27.19,11111222 
FIT,ioos:station:wmo:SIPF1:1,2019-06-03T04:00:00Z,27.8620,-80.4450,8.0,26.8,11111222 
FIT,ioos:station:wmo:SIPF1:1,2019-06-03T04:15:00Z,27.8620,-80.4450,8.0,26.6,11111222 
FIT,ioos:station:wmo:SIPF1:1,2019-06-03T04:30:00Z,27.8620,-80.4450,8.0,26.6,11111222 
FIT,ioos:station:wmo:SIPF1:1,2019-06-03T04:45:00Z,27.8620,-80.4450,8.0,26.43,11111222 
FIT,ioos:station:wmo:SIPF1:1,2019-06-03T05:00:00Z,27.8620,-80.4450,8.0,26.4,11111222 
FIT,ioos:station:wmo:SIPF1:1,2019-06-03T05:15:00Z,27.8620,-80.4450,8.0,26.2,11111222 
FIT,ioos:station:wmo:SIPF1:1,2019-06-03T05:30:00Z,27.8620,-80.4450,8.0,26.1,11111222 
FIT,ioos:station:wmo:SIPF1:1,2019-06-03T05:45:00Z,27.8620,-80.4450,8.0,25.98,11111222 
FIT,ioos:station:wmo:SIPF1:1,2019-06-03T06:00:00Z,27.8620,-80.4450,8.0,25.9,11111222 
FIT,ioos:station:wmo:SIPF1:1,2019-06-03T06:15:00Z,27.8620,-80.4450,8.0,25.7,11111222 
FIT,ioos:station:wmo:SIPF1:1,2019-06-03T06:30:00Z,27.8620,-80.4450,8.0,25.6,11111222 
FIT,ioos:station:wmo:SIPF1:1,2019-06-03T06:45:00Z,27.8620,-80.4450,8.0,25.6,11111222 
FIT,ioos:station:wmo:SIPF1:1,2019-06-03T07:00:00Z,27.8620,-80.4450,8.0,25.6,11111222 
FIT,ioos:station:wmo:SIPF1:1,2019-06-03T07:15:00Z,27.8620,-80.4450,8.0,25.6,11111222 
FIT,ioos:station:wmo:SIPF1:1,2019-06-03T07:30:00Z,27.8620,-80.4450,8.0,25.5,11111222 
FIT,ioos:station:wmo:SIPF1:1,2019-06-03T07:45:00Z,27.8620,-80.4450,8.0,25.4,11111222 
FIT,ioos:station:wmo:SIPF1:1,2019-06-03T08:00:00Z,27.8620,-80.4450,8.0,25.2,11111222 
FIT,ioos:station:wmo:SIPF1:1,2019-06-03T08:15:00Z,27.8620,-80.4450,8.0,25.0,11111222 
FIT,ioos:station:wmo:SIPF1:1,2019-06-03T08:30:00Z,27.8620,-80.4450,8.0,24.9,11111222 
FIT,ioos:station:wmo:SIPF1:1,2019-06-03T08:45:00Z,27.8620,-80.4450,8.0,24.72,11111222 
FIT,ioos:station:wmo:SIPF1:1,2019-06-03T09:00:00Z,27.8620,-80.4450,8.0,24.6,11111222 
FIT,ioos:station:wmo:SIPF1:1,2019-06-03T09:15:00Z,27.8620,-80.4450,8.0,24.4,11111222 
FIT,ioos:station:wmo:SIPF1:1,2019-06-03T09:30:00Z,27.8620,-80.4450,8.0,24.3,11111222 
FIT,ioos:station:wmo:SIPF1:1,2019-06-03T09:45:00Z,27.8620,-80.4450,8.0,24.12,11111222 
FIT,ioos:station:wmo:SIPF1:1,2019-06-03T10:00:00Z,27.8620,-80.4450,8.0,24.1,11111222 
FIT,ioos:station:wmo:SIPF1:1,2019-06-03T10:15:00Z,27.8620,-80.4450,8.0,24.1,11111222 
FIT,ioos:station:wmo:SIPF1:1,2019-06-03T10:30:00Z,27.8620,-80.4450,8.0,23.9,11111222 
FIT,ioos:station:wmo:SIPF1:1,2019-06-03T10:45:00Z,27.8620,-80.4450,8.0,23.77,11111222 
FIT,ioos:station:wmo:SIPF1:1,2019-06-03T11:00:00Z,27.8620,-80.4450,8.0,24.1,11111222 
FIT,ioos:station:wmo:SIPF1:1,2019-06-03T11:15:00Z,27.8620,-80.4450,8.0,24.7,11111222 
FIT,ioos:station:wmo:SIPF1:1,2019-06-03T11:30:00Z,27.8620,-80.4450,8.0,25.3,11111222 
FIT,ioos:station:wmo:SIPF1:1,2019-06-03T11:45:00Z,27.8620,-80.4450,8.0,25.85,11111222 
FIT,ioos:station:wmo:SIPF1:1,2019-06-03T12:00:00Z,27.8620,-80.4450,8.0,26.3,11111222 
FIT,ioos:station:wmo:SIPF1:1,2019-06-03T12:15:00Z,27.8620,-80.4450,8.0,26.9,11111222 
FIT,ioos:station:wmo:SIPF1:1,2019-06-03T12:30:00Z,27.8620,-80.4450,8.0,28.0,11111222 
FIT,ioos:station:wmo:SIPF1:1,2019-06-03T12:45:00Z,27.8620,-80.4450,8.0,28.36,11111222 
FIT,ioos:station:wmo:SIPF1:1,2019-06-03T13:00:00Z,27.8620,-80.4450,8.0,28.8,11111222 
FIT,ioos:station:wmo:SIPF1:1,2019-06-03T13:15:00Z,27.8620,-80.4450,8.0,29.6,11111222 
FIT,ioos:station:wmo:SIPF1:1,2019-06-03T13:30:00Z,27.8620,-80.4450,8.0,29.7,11111222 
FIT,ioos:station:wmo:SIPF1:1,2019-06-03T13:45:00Z,27.8620,-80.4450,8.0,30.19,11111222 
FIT,ioos:station:wmo:SIPF1:1,2019-06-03T14:00:00Z,27.8620,-80.4450,8.0,29.4,11111222 
FIT,ioos:station:wmo:SIPF1:1,2019-06-03T14:15:00Z,27.8620,-80.4450,8.0,27.9,11111222 
FIT,ioos:station:wmo:SIPF1:1,2019-06-03T14:30:00Z,27.8620,-80.4450,8.0,27.0,11111222 
FIT,ioos:station:wmo:SIPF1:1,2019-06-03T14:45:00Z,27.8620,-80.4450,8.0,26.7,11111222 
FIT,ioos:station:wmo:SIPF1:1,2019-06-03T15:00:00Z,27.8620,-80.4450,8.0,26.9,11111222 
FIT,ioos:station:wmo:SIPF1:1,2019-06-03T15:15:00Z,27.8620,-80.4450,8.0,27.1,11111222 
FIT,ioos:station:wmo:SIPF1:1,2019-06-03T15:30:00Z,27.8620,-80.4450,8.0,27.9,11111222 
FIT,ioos:station:wmo:SIPF1:1,2019-06-03T15:45:00Z,27.8620,-80.4450,8.0,28.34,11111222 
FIT,ioos:station:wmo:SIPF1:1,2019-06-03T16:00:00Z,27.8620,-80.4450,8.0,28.9,11111222 
FIT,ioos:station:wmo:SIPF1:1,2019-06-03T16:15:00Z,27.8620,-80.4450,8.0,30.6,11111222 
FIT,ioos:station:wmo:SIPF1:1,2019-06-03T16:30:00Z,27.8620,-80.4450,8.0,31.7,11111222 
FIT,ioos:station:wmo:SIPF1:1,2019-06-03T16:45:00Z,27.8620,-80.4450,8.0,31.88,11111222 
FIT,ioos:station:wmo:SIPF1:1,2019-06-03T17:00:00Z,27.8620,-80.4450,8.0,31.8,11111222 
FIT,ioos:station:wmo:SIPF1:1,2019-06-03T17:15:00Z,27.8620,-80.4450,8.0,31.4,11111222 
FIT,ioos:station:wmo:SIPF1:1,2019-06-03T17:30:00Z,27.8620,-80.4450,8.0,31.1,11111222 
FIT,ioos:station:wmo:SIPF1:1,2019-06-03T17:45:00Z,27.8620,-80.4450,8.0,31.17,11111222 
FIT,ioos:station:wmo:SIPF1:1,2019-06-03T18:00:00Z,27.8620,-80.4450,8.0,31.4,11111222 
FIT,ioos:station:wmo:SIPF1:1,2019-06-03T18:15:00Z,27.8620,-80.4450,8.0,31.7,11111222 
FIT,ioos:station:wmo:SIPF1:1,2019-06-03T18:30:00Z,27.8620,-80.4450,8.0,28.7,11111222 
FIT,ioos:station:wmo:SIPF1:1,2019-06-03T18:45:00Z,27.8620,-80.4450,8.0,27.52,11111222 
FIT,ioos:station:wmo:SIPF1:1,2019-06-03T19:00:00Z,27.8620,-80.4450,8.0,27.3,11111222 
FIT,ioos:station:wmo:SIPF1:1,2019-06-03T19:15:00Z,27.8620,-80.4450,8.0,27.2,11111222 
FIT,ioos:station:wmo:SIPF1:1,2019-06-03T19:30:00Z,27.8620,-80.4450,8.0,27.1,11111222 
FIT,ioos:station:wmo:SIPF1:1,2019-06-03T19:45:00Z,27.8620,-80.4450,8.0,27.18,11111222 
FIT,ioos:station:wmo:SIPF1:1,2019-06-03T20:00:00Z,27.8620,-80.4450,8.0,27.3,11111222 
FIT,ioos:station:wmo:SIPF1:1,2019-06-03T20:15:00Z,27.8620,-80.4450,8.0,27.4,11111222 
FIT,ioos:station:wmo:SIPF1:1,2019-06-03T20:30:00Z,27.8620,-80.4450,8.0,27.5,11111222 
FIT,ioos:station:wmo:SIPF1:1,2019-06-03T20:45:00Z,27.8620,-80.4450,8.0,27.52,11111222 
FIT,ioos:station:wmo:SIPF1:1,2019-06-03T21:00:00Z,27.8620,-80.4450,8.0,27.4,11111222 